{"data":{"norad_id":54677,"intl_designator":"2022-166AM","name":"ONEWEB-0655","alt_names":[],"object_type":"PAYLOAD","status":"ACTIVE","operator":null,"country":"UK","launch_date":"2022-12-08","launch_site_code":"AFETR","launch_vehicle":null,"mission":null,"orbit_class":"UNKNOWN","rcs_meters":null,"size_class":null,"mass_kg":null,"dimensions":null,"purposes":["comms"],"wikipedia_slug":null,"has_3d_model":false,"image_url":null,"decayed_at":null,"tle_current":{"epoch":"2026-09-19T14:53:34.039968Z","epoch_age_seconds":101655,"freshness":"FRESH","line1":"1 54677U 22166AM  26262.62053287 -.00001095  00000+0 -26825-2 0  9998","line2":"2 54677  87.9278 225.1902 0002020  75.1014 285.0344 13.21831947183912","mean_motion":13.21831947,"eccentricity":0.000202,"inclination_deg":87.9278,"raan_deg":225.1902,"arg_perigee_deg":75.1014,"mean_anomaly_deg":285.0344,"bstar":-0.0026825,"rev_number":18391,"period_min":108.93971834076,"perigee_km":1176.204420143,"apogee_km":1179.256990696,"semimajor_km":7555.8677054195,"source":"CELESTRAK","updated_at":"2026-09-20T09:00:44.748612Z"}}}